This is the latest recevied weather packets stored in our database for station/object SP6PWT-13. If no packets are shown the sender has not sent any weather packets the latest 10 day(s).
| Time | Temp. | Humidity | Pressure | Rain* | Wind** | Luminosity | Snow |
|---|---|---|---|---|---|---|---|
| 1777394163 | 12.78° C | 26% | 1007.1 hPa | 0 mm | - | 81 W/m² | - |
| 1777393863 | 12.78° C | 26% | 1007.1 hPa | 0 mm | - | 89 W/m² | - |
| 1777393563 | 12.78° C | 25% | 1007.3 hPa | 0 mm | - | 97 W/m² | - |
| 1777393262 | 12.78° C | 26% | 1007.2 hPa | 0 mm | - | 104 W/m² | - |
| 1777392951 | 12.78° C | 25% | 1007.2 hPa | 0 mm | - | 93 W/m² | - |
| 1777392650 | 12.78° C | 26% | 1007.3 hPa | 0 mm | - | 117 W/m² | - |
| 1777392350 | 12.78° C | 25% | 1007.2 hPa | 0 mm | - | 136 W/m² | - |
| 1777392049 | 12.78° C | 25% | 1007.3 hPa | 0 mm | - | 135 W/m² | - |
| 1777391739 | 12.78° C | 25% | 1007.2 hPa | 0 mm | - | 138 W/m² | - |
| 1777391439 | 12.78° C | 25% | 1007.2 hPa | 0 mm | - | 129 W/m² | - |
| 1777391138 | 12.78° C | 25% | 1007.3 hPa | 0 mm | - | 174 W/m² | - |
| 1777390837 | 13.33° C | 25% | 1007.3 hPa | 0 mm | - | 193 W/m² | - |
| 1777390527 | 13.33° C | 25% | 1007.2 hPa | 0 mm | - | 210 W/m² | - |
| 1777390226 | 13.33° C | 23% | 1007 hPa | 0 mm | - | 223 W/m² | - |
| 1777389925 | 13.33° C | 24% | 1007.2 hPa | 0 mm | - | 237 W/m² | - |
| 1777389615 | 13.33° C | 23% | 1007.2 hPa | 0 mm | - | 249 W/m² | - |
| 1777389314 | 13.33° C | 24% | 1007.2 hPa | 0 mm | - | 260 W/m² | - |
| 1777389014 | 13.89° C | 23% | 1007.2 hPa | 0 mm | - | 270 W/m² | - |
| 1777388703 | 13.89° C | 24% | 1007.4 hPa | 0 mm | - | 282 W/m² | - |
| 1777388403 | 13.33° C | 24% | 1007.3 hPa | 0 mm | - | 293 W/m² | - |
| 1777388102 | 13.33° C | 25% | 1007.2 hPa | 0 mm | - | 303 W/m² | - |
| 1777387801 | 12.78° C | 24% | 1007.2 hPa | 0 mm | - | 315 W/m² | - |
| 1777387501 | 12.78° C | 24% | 1007.1 hPa | 0 mm | - | 324 W/m² | - |
| 1777387190 | 13.33° C | 24% | 1007.4 hPa | 0 mm | - | 334 W/m² | - |
| 1777386889 | 12.78° C | 25% | 1007.4 hPa | 0 mm | - | 345 W/m² | - |
* Rain latest hour (hover to see other rain measurements)
** Current wind speed in m/s (hover to see current wind gust speed)